H1 CPF 2 NER 2025 8 15 9 227 01 glonass138 H2 1805301 9138 43508 2025 8 15 0 0 0 2025 8 18 23 45 0 900 1 1 0 0 0 1 H9 10 0 60902 0.00000 0 10667393.163 2648937.986 -23011860.297 10 0 60902 900.00000 0 9292614.585 5150402.497 -23185481.235 10 0 60902 1800.00000 0 8111752.694 7741794.288 -22908627.646 10 0 60902 2700.00000 0 7150190.575 10356721.784 -22186771.157 10 0 60902 3600.00000 0 6421064.079 12925924.851 -21034020.267 10 0 60902 4500.00000 0 5924864.870 15379957.789 -19472840.407 10 0 60902 5400.00000 0 5649588.905 17651890.168 -17533612.995 10 0 60902 6300.00000 0 5571422.704 19679913.818 -15254042.189 10 0 60902 7200.00000 0 5655937.328 21409748.117 -12678420.851 10 0 60902 8100.00000 0 5859738.772 22796744.170 -9856769.858 10 0 60902 9000.00000 0 6132504.393 23807600.934 -6843867.320 10 0 60902 9900.00000 0 6419318.923 24421622.449 -3698186.434 10 0 60902 10800.00000 0 6663211.032 24631464.438 -480762.458 10 0 60902 11700.00000 0 6807783.056 24443339.826 2745989.283 10 0 60902 12600.00000 0 6799822.607 23876675.250 5919481.445 10 0 60902 13500.00000 0 6591785.609 22963233.543 8978165.385 10 0 60902 14400.00000 0 6144045.656 21745739.423 11862721.190 10 0 60902 15300.00000 0 5426814.513 20276066.261 14517204.059 10 0 60902 16200.00000 0 4421652.284 18613059.996 16890125.071 10 0 60902 17100.00000 0 3122502.976 16820091.247 18935445.785 10 0 60902 18000.00000 0 1536210.978 14962437.781 20613467.787 10 0 60902 18900.00000 0 -317504.427 13104606.415 21891600.430 10 0 60902 19800.00000 0 -2406616.942 11307705.693 22744992.353 10 0 60902 20700.00000 0 -4687881.391 9626978.527 23157014.851 10 0 60902 21600.00000 0 -7108398.466 8109597.175 23119587.918 10 0 60902 22500.00000 0 -9607592.624 6792812.061 22633342.583 10 0 60902 23400.00000 0 -12119522.404 5702531.275 21707616.063 10 0 60902 24300.00000 0 -14575428.456 4852389.721 20360279.271 10 0 60902 25200.00000 0 -16906414.407 4243346.601 18617399.227 10 0 60902 26100.00000 0 -19046149.719 3863827.930 16512742.005 10 0 60902 27000.00000 0 -20933482.360 3690407.985 14087124.913 10 0 60902 27900.00000 0 -22514852.360 3689000.930 11387629.601 10 0 60902 28800.00000 0 -23746405.193 3816512.247 8466690.699 10 0 60902 29700.00000 0 -24595716.121 4022880.013 5381077.313 10 0 60902 30600.00000 0 -25043052.725 4253419.262 2190787.060 10 0 60902 31500.00000 0 -25082122.081 4451369.549 -1042125.499 10 0 60902 32400.00000 0 -24720270.832 4560536.914 -4254762.666 10 0 60902 33300.00000 0 -23978129.528 4527917.210 -7384615.188 10 0 60902 34200.00000 0 -22888716.260 4306188.365 -10370786.617 10 0 60902 35100.00000 0 -21496037.675 3855964.771 -13155185.648 10 0 60902 36000.00000 0 -19853246.731 3147717.033 -15683662.315 10 0 60902 36900.00000 0 -18020435.415 2163274.779 -17907065.254 10 0 60902 37800.00000 0 -16062155.864 896847.997 -19782199.066 10 0 60902 38700.00000 0 -14044774.589 -644477.045 -21272663.115 10 0 60902 39600.00000 0 -12033771.210 -2440788.911 -22349555.643 10 0 60902 40500.00000 0 -10091094.980 -4459947.602 -22992030.033 10 0 60902 41400.00000 0 -8272689.515 -6658702.212 -23187693.074 10 0 60902 42300.00000 0 -6626288.666 -8984283.299 -22932838.203 10 0 60902 43200.00000 0 -5189574.703 -11376403.939 -22232509.970 10 0 60902 44100.00000 0 -3988774.549 -13769586.408 -21100399.044 10 0 60902 45000.00000 0 -3037751.254 -16095717.975 -19558570.346 10 0 60902 45900.00000 0 -2337627.107 -18286729.810 -17637029.845 10 0 60902 46800.00000 0 -1876952.523 -20277287.947 -15373138.581 10 0 60902 47700.00000 0 -1632412.032 -22007384.695 -12810885.280 10 0 60902 48600.00000 0 -1570036.309 -23424723.019 -10000031.588 10 0 60902 49500.00000 0 -1646868.057 -24486795.000 -6995146.337 10 0 60902 50400.00000 0 -1813010.588 -25162568.095 -3854547.466 10 0 60902 51300.00000 0 -2013972.017 -25433709.311 -639172.009 10 0 60902 52200.00000 0 -2193205.589 -25295296.540 2588604.008 10 0 60902 53100.00000 0 -2294738.487 -24755987.793 5766172.910 10 0 60902 54000.00000 0 -2265777.859 -23837641.567 8831906.534 10 0 60902 54900.00000 0 -2059183.741 -22574404.555 11726347.874 10 0 60902 55800.00000 0 -1635704.271 -21011305.020 14393360.161 10 0 60902 56700.00000 0 -965878.519 -19202410.722 16781211.408 10 0 60902 57600.00000 0 -31526.282 -17208628.238 18843573.726 10 0 60902 58500.00000 0 1173238.603 -15095235.370 20540418.463 10 0 60902 59400.00000 0 2641514.996 -12929249.155 21838790.308 10 0 60902 60300.00000 0 4353663.163 -10776738.721 22713445.808 10 0 60902 61200.00000 0 6277894.923 -8700194.317 23147344.253 10 0 60902 62100.00000 0 8371382.194 -6756061.483 23131981.621 10 0 60902 63000.00000 0 10581839.401 -4992542.353 22667561.044 10 0 60902 63900.00000 0 12849515.399 -3447755.139 21762996.203 10 0 60902 64800.00000 0 15109513.437 -2148327.974 20435747.007 10 0 60902 65700.00000 0 17294343.747 -1108485.329 18711489.967 10 0 60902 66600.00000 0 19336603.256 -329664.891 16623628.761 10 0 60902 67500.00000 0 21171671.177 199319.413 14212653.514 10 0 60902 68400.00000 0 22740308.090 501575.364 11525360.359 10 0 60902 69300.00000 0 23991049.574 610921.198 8613945.735 10 0 60902 70200.00000 0 24882293.687 570216.630 5534992.635 10 0 60902 71100.00000 0 25383994.099 429307.136 2348368.377 10 0 60902 72000.00000 0 25478887.003 242669.154 -883944.319 10 0 60902 72900.00000 0 25163199.563 66856.760 -4099059.681 10 0 60902 73800.00000 0 24446809.562 -42140.904 -7234420.187 10 0 60902 74700.00000 0 23352849.194 -31518.314 -10229021.895 10 0 60902 75600.00000 0 21916769.661 145863.890 -13024608.903 10 0 60902 76500.00000 0 20184906.072 529238.858 -15566812.862 10 0 60902 77400.00000 0 18212603.427 1148031.913 -17806214.603 10 0 60902 78300.00000 0 16061982.845 2020378.769 -19699306.851 10 0 60902 79200.00000 0 13799442.275 3152126.983 -21209339.199 10 0 60902 80100.00000 0 11492996.793 4536363.393 -22307029.122 10 0 60902 81000.00000 0 9209569.937 6153487.986 -22971125.689 10 0 60902 81900.00000 0 7012349.172 7971831.577 -23188815.677 10 0 60902 82800.00000 0 4958315.448 9948791.744 -22955964.949 10 0 60902 83700.00000 0 3096049.093 12032439.885 -22277191.133 10 0 60902 84600.00000 0 1463902.424 14163532.573 -21165766.853 10 0 60902 85500.00000 0 88613.872 16277843.557 -19643355.886 10 0 60903 0.00000 0 -1015580.081 18308719.320 -17739587.874 10 0 60903 900.00000 0 -1847300.336 20189753.028 -15491478.886 10 0 60903 1800.00000 0 -2417833.453 21857462.990 -12942711.736 10 0 60903 2700.00000 0 -2750404.446 23253867.848 -10142786.501 10 0 60903 3600.00000 0 -2878944.586 24328848.586 -7146060.023 10 0 60903 4500.00000 0 -2846407.964 25042200.078 -4010691.970 10 0 60903 5400.00000 0 -2702708.595 25365286.527 -797517.904 10 0 60903 6300.00000 0 -2502365.874 25282231.784 2431128.857 10 0 60903 7200.00000 0 -2301958.252 24790594.913 5612623.753 10 0 60903 8100.00000 0 -2157493.060 23901502.882 8685262.509 10 0 60903 9000.00000 0 -2121803.806 22639234.859 11589454.291 10 0 60903 9900.00000 0 -2242085.022 21040275.460 14268873.423 10 0 60903 10800.00000 0 -2557668.914 19151876.404 16671547.636 10 0 60903 11700.00000 0 -3098137.869 17030186.327 18750862.059 10 0 60903 12600.00000 0 -3881852.799 14738026.424 20466459.923 10 0 60903 13500.00000 0 -4914959.890 12342404.129 21785022.988 10 0 60903 14400.00000 0 -6190918.464 9911867.681 22680917.022 10 0 60903 15300.00000 0 -7690570.929 7513811.020 23136690.165 10 0 60903 16200.00000 0 -9382753.306 5211840.294 23143414.727 10 0 60903 17100.00000 0 -11225422.411 3063310.743 22700865.752 10 0 60903 18000.00000 0 -13167254.129 1117135.675 21817532.600 10 0 60903 18900.00000 0 -15149647.635 -588041.918 20510462.785 10 0 60903 19800.00000 0 -17109053.195 -2025239.545 18804940.330 10 0 60903 20700.00000 0 -18979527.406 -3180029.643 16734003.968 10 0 60903 21600.00000 0 -20695409.775 -4050901.300 14337813.600 10 0 60903 22500.00000 0 -22194009.014 -4649074.531 11662876.390 10 0 60903 23400.00000 0 -23418186.413 -4997775.278 8761146.864 10 0 60903 24300.00000 0 -24318727.547 -5131002.133 5689018.020 10 0 60903 25200.00000 0 -24856402.025 -5091837.335 2506222.977 10 0 60903 26100.00000 0 -25003623.804 -4930374.121 -725331.213 10 0 60903 27000.00000 0 -24745641.324 -4701348.962 -3942774.344 10 0 60903 27900.00000 0 -24081206.500 -4461579.990 -7083504.042 10 0 60903 28800.00000 0 -23022693.741 -4267321.271 -10086411.971 10 0 60903 29700.00000 0 -21595663.553 -4171646.248 -12893080.417 10 0 60903 30600.00000 0 -19837888.901 -4221972.375 -15448925.039 10 0 60903 31500.00000 0 -17797885.344 -4457832.838 -17704260.820 10 0 60903 32400.00000 0 -15533006.870 -4908990.544 -19615270.044 10 0 60903 33300.00000 0 -13107187.625 -5593974.833 -21144853.418 10 0 60903 34200.00000 0 -10588424.342 -6519103.225 -22263347.925 10 0 60903 35100.00000 0 -8046104.931 -7678029.819 -22949097.979 10 0 60903 36000.00000 0 -5548294.633 -9051839.662 -23188869.426 10 0 60903 36900.00000 0 -3159092.609 -10609685.320 -22978099.090 10 0 60903 37800.00000 0 -936168.407 -12309939.190 -22320975.775 10 0 60903 38700.00000 0 1071420.119 -14101813.467 -21230351.791 10 0 60903 39600.00000 0 2825037.814 -15927380.210 -19727487.226 10 0 60903 40500.00000 0 4297838.271 -17723907.274 -17841632.281 10 0 60903 41400.00000 0 5475629.656 -19426412.748 -15609455.873 10 0 60903 42300.00000 0 6357205.935 -20970331.363 -13074331.652 10 0 60903 43200.00000 0 6954131.430 -22294181.669 -10285495.160 10 0 60903 44100.00000 0 7289989.410 -23342122.665 -7297088.323 10 0 60903 45000.00000 0 7399127.750 -24066293.080 -4167109.677 10 0 60903 45900.00000 0 7324955.664 -24428835.504 -956290.569 10 0 60903 46800.00000 0 7117864.253 -24403520.680 2273080.979 10 0 60903 47700.00000 0 6832859.285 -23976903.915 5458365.933 10 0 60903 48600.00000 0 6527006.600 -23148965.080 8537786.102 10 0 60903 49500.00000 0 6256798.318 -21933205.240 11451618.784 10 0 60903 50400.00000 0 6075551.191 -20356195.606 14143351.102 10 0 60903 51300.00000 0 6030947.042 -18456597.306 16560771.926 10 0 60903 52200.00000 0 6162819.124 -16283692.413 18656980.522 10 0 60903 53100.00000 0 6501277.916 -13895486.951 20391292.799 10 0 60903 54000.00000 0 7065255.598 -11356464.212 21730028.031 10 0 60903 54900.00000 0 7861531.007 -8735081.071 22647161.315 10 0 60903 55800.00000 0 8884276.837 -6101110.593 23124829.408 10 0 60903 56700.00000 0 10115149.161 -3522940.423 23153680.404 10 0 60903 57600.00000 0 11523916.803 -1064938.279 22733060.422 10 0 60903 58500.00000 0 13069605.621 1215006.804 21871033.424 10 0 60903 59400.00000 0 14702111.238 3267666.085 20584233.242 10 0 60903 60300.00000 0 16364214.102 5054285.486 18897549.937 10 0 60903 61200.00000 0 17993913.657 6547957.650 16843655.668 10 0 60903 62100.00000 0 19526984.733 7734494.933 14462378.331 10 0 60903 63000.00000 0 20899649.461 8612767.235 11799934.196 10 0 60903 63900.00000 0 22051252.674 9194490.896 8908033.790 10 0 60903 64800.00000 0 22926828.088 9503478.018 5842877.888 10 0 60903 65700.00000 0 23479446.699 9574378.345 2664063.047 10 0 60903 66600.00000 0 23672247.631 9450967.464 -566581.809 10 0 60903 67500.00000 0 23480064.856 9184054.486 -3786204.546 10 0 60903 68400.00000 0 22890580.186 8829098.707 -6932160.397 10 0 60903 69300.00000 0 21904952.984 8443637.249 -9943238.994 10 0 60903 70200.00000 0 20537899.287 8084633.795 -12760862.986 10 0 60903 71100.00000 0 18817216.488 7805861.819 -15330233.985 10 0 60903 72000.00000 0 16782773.238 7655434.161 -17601402.816 10 0 60903 72900.00000 0 14485006.932 7673584.337 -19530242.793 10 0 60903 73800.00000 0 11982991.826 7890794.015 -21079306.984 10 0 60903 74700.00000 0 9342158.768 8326346.183 -22218552.957 10 0 60903 75600.00000 0 6631761.941 8987365.261 -22925921.383 10 0 60903 76500.00000 0 3922198.218 9868384.664 -23187757.913 10 0 60903 77400.00000 0 1282290.595 10951459.991 -22999070.870 10 0 60903 78300.00000 0 -1223351.770 12206823.046 -22363620.507 10 0 60903 79200.00000 0 -3536787.938 13594049.178 -21293838.770 10 0 60903 80100.00000 0 -5608912.997 15063689.008 -19810581.656 10 0 60903 81000.00000 0 -7401250.490 16559296.202 -17942719.300 10 0 60903 81900.00000 0 -8887296.424 18019766.463 -15726571.917 10 0 60903 82800.00000 0 -10053360.496 19381889.910 -13205202.549 10 0 60903 83700.00000 0 -10898871.197 20583010.043 -10427580.241 10 0 60903 84600.00000 0 -11436133.716 21563678.063 -7447629.720 10 0 60903 85500.00000 0 -11689552.394 22270191.324 -4323185.829 10 0 60904 0.00000 0 -11694351.778 22656909.526 -1114873.205 10 0 60904 900.00000 0 -11494851.175 22688251.594 2115068.959 10 0 60904 1800.00000 0 -11142366.335 22340288.896 5303989.938 10 0 60904 2700.00000 0 -10692827.375 21601868.465 8390040.755 10 0 60904 3600.00000 0 -10204213.745 20475218.200 11313369.957 10 0 60904 4500.00000 0 -9733914.745 18976008.517 14017280.520 10 0 60904 5400.00000 0 -9336126.986 17132867.252 16449325.370 10 0 60904 6300.00000 0 -9059398.536 14986367.412 18562320.642 10 0 60904 7200.00000 0 -8944423.218 12587529.209 20315257.392 10 0 60904 8100.00000 0 -9022178.013 9995897.926 21674094.589 10 0 60904 9000.00000 0 -9312482.121 7277276.590 22612418.456 10 0 60904 9900.00000 0 -9823038.659 4501206.703 23111955.754 10 0 60904 10800.00000 0 -10548999.870 1738300.594 23162931.260 10 0 60904 11700.00000 0 -11473074.994 -942464.901 22764262.538 10 0 60904 12600.00000 0 -12566177.312 -3476382.053 21923587.940 10 0 60904 13500.00000 0 -13788584.439 -5805464.626 20657126.797 10 0 60904 14400.00000 0 -15091564.428 -7880617.906 18989373.780 10 0 60904 15300.00000 0 -16419400.578 -9663436.609 16952632.451 10 0 60904 16200.00000 0 -17711730.873 -11127556.243 14586396.126 10 0 60904 17100.00000 0 -18906104.396 -12259501.870 11936587.148 10 0 60904 18000.00000 0 -19940647.471 -13058999.110 9054668.628 10 0 60904 18900.00000 0 -20756727.152 -13538734.686 5996645.447 10 0 60904 19800.00000 0 -21301499.359 -13723577.065 2821973.769 10 0 60904 20700.00000 0 -21530233.336 -13649290.577 -407599.486 10 0 60904 21600.00000 0 -21408313.354 -13360798.019 -3629244.084 10 0 60904 22500.00000 0 -20912831.998 -12910066.047 -6780276.581 10 0 60904 23400.00000 0 -20033706.670 -12353703.812 -9799388.104 10 0 60904 24300.00000 0 -18774271.162 -11750377.579 -12627844.925 10 0 60904 25200.00000 0 -17151316.541 -11158151.828 -15210637.561 10 0 60904 26100.00000 0 -15194578.972 -10631870.383 -17497555.218 10 0 60904 27000.00000 0 -12945695.619 -10220689.161 -19444164.286 10 0 60904 27900.00000 0 -10456672.192 -9965865.408 -21012671.673 10 0 60904 28800.00000 0 -7787926.205 -9898897.142 -22172656.378 10 0 60904 29700.00000 0 -5005987.681 -10040091.338 -22901655.515 10 0 60904 30600.00000 0 -2180953.071 -10397621.081 -23185594.079 10 0 60904 31500.00000 0 616201.774 -10967111.092 -23019050.829 10 0 60904 32400.00000 0 3316338.236 -11731768.679 -22405355.888 10 0 60904 33300.00000 0 5854788.926 -12663054.282 -21356518.844 10 0 60904 34200.00000 0 8173800.480 -13721863.092 -19892989.259 10 0 60904 35100.00000 0 10224684.792 -14860167.917 -18043254.606 10 0 60904 36000.00000 0 11969590.596 -16023054.224 -15843283.580 10 0 60904 36900.00000 0 13382823.123 -17151061.859 -13335825.627 10 0 60904 37800.00000 0 14451658.436 -18182735.165 -10569580.170 10 0 60904 38700.00000 0 15176620.075 -19057274.473 -7598251.485 10 0 60904 39600.00000 0 15571207.955 -19717177.604 -4479507.424 10 0 60904 40500.00000 0 15661092.360 -20110760.419 -1273862.023 10 0 60904 41400.00000 0 15482808.099 -20194450.415 1956496.430 10 0 60904 42300.00000 0 15082004.757 -19934756.801 5148909.168 10 0 60904 43200.00000 0 14511327.456 -19309834.036 8241459.253 10 0 60904 44100.00000 0 13828017.924 -18310572.740 11174169.001 10 0 60904 45000.00000 0 13091337.270 -16941171.659 13890159.372 10 0 60904 45900.00000 0 12359919.121 -15219166.039 16336749.065 10 0 60904 46800.00000 0 11689164.621 -13174910.330 18466472.352 10 0 60904 47700.00000 0 11128788.820 -10850535.892 20237996.261 10 0 60904 48600.00000 0 10720621.557 -8298426.057 21616919.823 10 0 60904 49500.00000 0 10496755.205 -5579270.837 22576440.345 10 0 60904 50400.00000 0 10478117.176 -2759781.011 23097874.127 10 0 60904 51300.00000 0 10673527.314 89844.766 23171021.818 10 0 60904 52200.00000 0 11079280.197 2898595.864 22794371.278 10 0 60904 53100.00000 0 11679270.510 5597358.644 21975133.826 10 0 60904 54000.00000 0 12445657.033 8121547.032 20729112.643 10 0 60904 54900.00000 0 13340038.287 10413546.268 19080405.164 10 0 60904 55800.00000 0 14315091.378 12424868.842 17060944.357 10 0 60904 56700.00000 0 15316605.980 14117933.274 14709886.836 10 0 60904 57600.00000 0 16285828.482 15467391.931 12072858.772 10 0 60904 58500.00000 0 17162017.930 16460952.531 9201073.520 10 0 60904 59400.00000 0 17885105.950 17099659.219 6150337.633 10 0 60904 60300.00000 0 18398348.052 17397621.677 2979964.386 10 0 60904 61200.00000 0 18650853.609 17381204.065 -248383.817 10 0 60904 62100.00000 0 18599886.616 17087708.562 -3471901.134 10 0 60904 63000.00000 0 18212838.835 16563609.782 -6627867.821 10 0 60904 63900.00000 0 17468790.693 15862415.581 -9654878.713 10 0 60904 64800.00000 0 16359592.819 15042245.666 -12494045.703 10 0 60904 65700.00000 0 14890421.486 14163231.452 -15090149.927 10 0 60904 66600.00000 0 13079783.663 13284848.070 -17392720.442 10 0 60904 67500.00000 0 10958970.759 12463292.087 -19357017.926 10 0 60904 68400.00000 0 8570983.481 11749016.306 -20944904.135 10 0 60904 69300.00000 0 5968972.539 11184525.945 -22125580.327 10 0 60904 70200.00000 0 3214260.145 10802529.140 -22876180.744 10 0 60904 71100.00000 0 374024.647 10624519.368 -23182210.255 10 0 60904 72000.00000 0 -2481255.472 10659848.990 -23037818.410 10 0 60904 72900.00000 0 -5280492.306 10905332.168 -22445905.324 10 0 60904 73800.00000 0 -7954702.636 11345393.186 -21418058.058 10 0 60904 74700.00000 0 -10439633.462 11952753.209 -19974319.243 10 0 60904 75600.00000 0 -12678190.776 12689626.017 -18142792.842 10 0 60904 76500.00000 0 -14622571.860 13509372.007 -15959094.833 10 0 60904 77400.00000 0 -16236013.594 14358540.569 -13465659.549 10 0 60904 78300.00000 0 -17494085.433 15179214.766 -10710914.998 10 0 60904 79200.00000 0 -18385474.498 15911559.580 -7748342.995 10 0 60904 80100.00000 0 -18912231.432 16496466.410 -4635442.188 10 0 60904 81000.00000 0 -19089468.058 16878182.486 -1432613.943 10 0 60904 81900.00000 0 -18944520.746 17006814.382 1798007.442 10 0 60904 82800.00000 0 -18515615.644 16840600.074 4993757.492 10 0 60904 83700.00000 0 -17850092.689 16347853.649 8092654.045 10 0 60904 84600.00000 0 -17002263.714 15508500.436 11034595.988 10 0 60904 85500.00000 0 -16030995.128 14315137.495 13762525.106 10 0 60905 0.00000 0 -14997117.145 12773574.348 16223528.484 10 0 60905 900.00000 0 -13960767.940 10902829.479 18369861.689 10 0 60905 1800.00000 0 -12978785.641 8734583.805 20159870.037 10 0 60905 2700.00000 0 -12102255.636 6312109.956 21558794.920 10 0 60905 3600.00000 0 -11374317.271 3688722.626 22539446.693 10 0 60905 4500.00000 0 -10828321.237 925812.325 23082732.801 10 0 60905 5400.00000 0 -10486414.885 -1909457.048 23178030.906 10 0 60905 6300.00000 0 -10358614.821 -4746692.571 22823399.852 10 0 60905 7200.00000 0 -10442405.902 -7514954.272 22025624.090 10 0 60905 8100.00000 0 -10722883.820 -10145464.478 20800090.287 10 0 60905 9000.00000 0 -11173435.806 -12574232.963 19170497.739 10 0 60905 9900.00000 0 -11756931.503 -14744489.437 17168407.388 10 0 60905 10800.00000 0 -12427374.453 -16608822.593 14832637.211 10 0 60905 11700.00000 0 -13131945.231 -18130936.836 12208514.822 10 0 60905 12600.00000 0 -13813350.349 -19286953.389 9347001.061 10 0 60905 13500.00000 0 -14412377.843 -20066201.409 6303701.082 10 0 60905 14400.00000 0 -14870551.272 -20471466.030 3137781.984 10 0 60905 15300.00000 0 -15132769.306 -20518683.030 -89181.795 10 0 60905 16200.00000 0 -15149818.297 -20236093.340 -3314412.326 10 0 60905 17100.00000 0 -14880650.408 -19662893.542 -6475157.132 10 0 60905 18000.00000 0 -14294329.630 -18847439.992 -9509918.282 10 0 60905 18900.00000 0 -13371562.123 -17845083.284 -12359656.718 10 0 60905 19800.00000 0 -12105744.986 -16715725.432 -14968947.466 10 0 60905 20700.00000 0 -10503488.138 -15521203.901 -17287062.416 10 0 60905 21600.00000 0 -8584586.399 -14322613.696 -19268959.155 10 0 60905 22500.00000 0 -6381442.206 -13177681.129 -20876156.432 10 0 60905 23400.00000 0 -3937962.650 -12138300.237 -22077479.360 10 0 60905 24300.00000 0 -1307976.555 -11248335.653 -22849660.293 10 0 60905 25200.00000 0 1446762.634 -10541783.973 -23177784.347 10 0 60905 26100.00000 0 4258905.210 -10041370.362 -23055571.636 10 0 60905 27000.00000 0 7058068.279 -9757638.431 -22485491.516 10 0 60905 27900.00000 0 9773527.456 -9688570.675 -21478707.299 10 0 60905 28800.00000 0 12336925.931 -9819754.310 -20054853.069 10 0 60905 29700.00000 0 14684889.117 -10125084.567 -18241647.298 10 0 60905 30600.00000 0 16761437.148 -10567974.968 -16074350.944 10 0 60905 31500.00000 0 18520095.887 -11103022.984 -13595080.600 10 0 60905 32400.00000 0 19925619.759 -11678060.418 -10851989.914 10 0 60905 33300.00000 0 20955255.749 -12236501.823 -7898334.998 10 0 60905 34200.00000 0 21599497.034 -12719891.758 -4791441.810 10 0 60905 35100.00000 0 21862295.896 -13070543.344 -1591595.387 10 0 60905 36000.00000 0 21760728.121 -13234156.753 1639127.680 10 0 60905 36900.00000 0 21324123.906 -13162307.065 4838060.874 10 0 60905 37800.00000 0 20592702.529 -12814696.351 7943160.263 10 0 60905 38700.00000 0 19615768.763 -12161074.794 10894204.466 10 0 60905 39600.00000 0 18449547.153 -11182749.408 13633958.831 10 0 60905 40500.00000 0 17154745.367 -9873616.268 16109281.505 10 0 60905 41400.00000 0 15793948.920 -8240671.971 18272150.235 10 0 60905 42300.00000 0 14428956.460 -6303981.830 20080590.336 10 0 60905 43200.00000 0 13118167.116 -4096104.808 21499486.315 10 0 60905 44100.00000 0 11914129.004 -1660997.772 22501261.862 10 0 60905 45000.00000 0 10861351.251 947556.805 23066415.385 10 0 60905 45900.00000 0 9994470.755 3667935.830 23183900.984 10 0 60905 46800.00000 0 9336850.172 6432992.313 22851347.505 10 0 60905 47700.00000 0 8899665.689 9172609.009 22075111.216 10 0 60905 48600.00000 0 8681522.791 11816384.177 20870160.633 10 0 60905 49500.00000 0 8668616.264 14296338.965 19259795.022 10 0 60905 50400.00000 0 8835427.957 16549534.565 17275201.174 10 0 60905 51300.00000 0 9145933.260 18520490.746 14954856.126 10 0 60905 52200.00000 0 9555265.794 20163305.171 12343786.474 10 0 60905 53100.00000 0 10011770.278 21443385.022 9492697.947 10 0 60905 54000.00000 0 10459356.895 22338718.378 6456991.606 10 0 60905 54900.00000 0 10840057.351 22840631.938 3295685.602 10 0 60905 55800.00000 0 11096673.930 22954003.137 70263.628 10 0 60905 56700.00000 0 11175408.541 22696917.805 -3156527.047 10 0 60905 57600.00000 0 11028359.342 22099788.003 -6321903.826 10 0 60905 58500.00000 0 10615777.986 21203967.671 -9364278.437 10 0 60905 59400.00000 0 9907990.611 20059925.110 -12224463.043 10 0 60905 60300.00000 0 8886900.068 18725050.181 -14846828.435 10 0 60905 61200.00000 0 7547004.691 17261189.533 -17180390.915 10 0 60905 62100.00000 0 5895889.617 15732014.576 -19179806.274 10 0 60905 63000.00000 0 3954169.054 14200333.686 -20806251.299 10 0 60905 63900.00000 0 1754881.226 12725462.175 -22028175.777 10 0 60905 64800.00000 0 -657639.228 11360760.645 -22821910.800 10 0 60905 65700.00000 0 -3229364.709 10151444.881 -23172122.150 10 0 60905 66600.00000 0 -5898587.434 9132758.542 -23072100.702 10 0 60905 67500.00000 0 -8598258.029 8328584.388 -22523884.977 10 0 60905 68400.00000 0 -11258553.084 7750551.078 -21538214.151 10 0 60905 69300.00000 0 -13809565.371 7397671.725 -20134313.029 10 0 60905 70200.00000 0 -16184005.503 7256527.988 -18339513.515 10 0 60905 71100.00000 0 -18319803.468 7301990.704 -16188720.142 10 0 60905 72000.00000 0 -20162502.582 7498445.631 -13723730.083 10 0 60905 72900.00000 0 -21667347.131 7801471.793 -10992420.730 10 0 60905 73800.00000 0 -22800977.626 8159901.051 -8047820.434 10 0 60905 74700.00000 0 -23542663.865 8518171.522 -4947080.287 10 0 60905 75600.00000 0 -23885025.241 8818875.296 -1750366.718 10 0 60905 76500.00000 0 -23834209.030 9005392.614 1480303.756 10 0 60905 77400.00000 0 -23409520.007 9024501.179 4682265.034 10 0 60905 78300.00000 0 -22642517.563 8828850.209 7793413.980 10 0 60905 79200.00000 0 -21575618.762 8379194.601 10753411.570 10 0 60905 80100.00000 0 -20260266.250 7646294.585 13504849.395 10 0 60905 81000.00000 0 -18754738.093 6612400.306 15994359.123 10 0 60905 81900.00000 0 -17121691.327 5272258.107 18173643.685 10 0 60905 82800.00000 0 -15425542.005 3633595.272 20000410.554 10 0 60905 83700.00000 0 -13729791.120 1717061.681 21439189.479 10 0 60905 84600.00000 0 -12094407.826 -444370.620 22462019.276 10 0 60905 85500.00000 0 -10573378.919 -2806526.407 23048990.743 99